Weather History for Noatak, AK

Change the Weather History Date:

Tuesday, May 1, 2012

  Actual Average Record
Temperature  
Mean Temperature 8 °F -  
Max Temperature 15 °F 29 °F 51 °F (2004)
Min Temperature 1 °F 15 °F -4 °F (2001)
Degree Days  
Heating Degree Days 57    
Moisture  
Dew Point 0 °F    
Average Humidity 68    
Maximum Humidity 85    
Minimum Humidity 53    
Precipitation  
Precipitation 0.00 in - - ()
Sea Level Pressure  
Sea Level Pressure 29.99 in    
Wind  
Wind Speed 12 mph (NW)    
Max Wind Speed 18 mph    
Max Gust Speed -    
Visibility 10 miles    
Events      
Averages and records for this station are not official NWS values.
T = Trace of Precipitation, MM = Missing Value Source: NWS Daily Summary

Daily Weather History Graph

Daily Weather History Graph

Search for Another Location

Airport:

Trip Planner

Search our weather history database for the weather conditions in past years. The results will help you decide how hot, cold, wet, or windy it might be!

Date:

Astronomy

May. 01, 2012 Rise Set
Actual Time 5:50 AM AKDT 11:50 PM AKDT
Civil Twilight 4:04 AM AKDT 1:42 AM AKDT
Nautical Twilight Sun does not rise Sun does not rise
Astronomical Twilight Sun does not rise Sun does not rise
Moon 4:58 PM AKDT 5:17 AM AKDT
Length of Visible Light 21h 37m
Length of Day
18h 00m
Waxing Gibbous, 75% of the Moon is Illuminated
May 1
Waxing Gibbous
May 5
Full
May 12
Last Quarter
May 20
New
May 28
First Quarter

Hourly Weather History & Observations

Time (AKDT) Temp. Windchill Dew Point Humidity Pressure Visibility Wind Dir Wind Speed Gust Speed Precip Events Conditions
12:16 AM 6.8 °F -10.7 °F -0.4 °F 72% 29.98 in 10.0 mi NW 15.0 mph - N/A   Clear
12:36 AM 6.8 °F -9.3 °F -0.4 °F 72% 29.98 in 10.0 mi NW 12.7 mph - N/A   Clear
12:56 AM 6.8 °F -10.7 °F -0.4 °F 72% 29.99 in 10.0 mi NW 15.0 mph - N/A   Scattered Clouds
1:16 AM 5.0 °F -11.6 °F -2.2 °F 72% 29.99 in 10.0 mi NW 12.7 mph - N/A   Partly Cloudy
1:36 AM 5.0 °F -12.3 °F -2.2 °F 72% 29.99 in 10.0 mi NW 13.8 mph - N/A   Clear
1:56 AM 3.2 °F -15.3 °F -2.2 °F 78% 29.98 in 10.0 mi NW 15.0 mph - N/A   Mostly Cloudy
2:16 AM 3.2 °F -16.5 °F -2.2 °F 78% 29.98 in 10.0 mi NW 17.3 mph - N/A   Partly Cloudy
2:36 AM 3.2 °F -15.3 °F -2.2 °F 78% 29.99 in 10.0 mi NW 15.0 mph - N/A   Clear
2:56 AM 3.2 °F -15.3 °F -2.2 °F 78% 29.99 in 10.0 mi NW 15.0 mph - N/A   Clear
3:36 AM 3.2 °F -11.3 °F -2.2 °F 78% 30.00 in 10.0 mi NW 9.2 mph - N/A   Clear
3:56 AM 1.4 °F -14.5 °F -5.8 °F 72% 30.00 in 10.0 mi NW 10.4 mph - N/A   Clear
4:16 AM 1.4 °F -16.1 °F -5.8 °F 72% 30.00 in 10.0 mi NW 12.7 mph - N/A   Clear
4:36 AM 1.4 °F -14.5 °F -5.8 °F 72% 30.00 in 10.0 mi NW 10.4 mph - N/A   Mostly Cloudy
4:56 AM 1.4 °F -15.3 °F -5.8 °F 72% 30.01 in 10.0 mi NW 11.5 mph - N/A   Mostly Cloudy
5:16 AM 1.4 °F -14.5 °F -5.8 °F 72% 30.01 in 10.0 mi NW 10.4 mph - N/A   Mostly Cloudy
5:36 AM 1.4 °F -14.5 °F -5.8 °F 72% 30.01 in 10.0 mi NW 10.4 mph - N/A   Mostly Cloudy
5:56 AM 1.4 °F -16.1 °F -4.0 °F 78% 30.01 in 10.0 mi NNW 12.7 mph - N/A   Scattered Clouds
6:16 AM 3.2 °F -13.1 °F -2.2 °F 78% 30.01 in 10.0 mi NNW 11.5 mph - N/A   Scattered Clouds
6:36 AM 3.2 °F -13.1 °F -2.2 °F 78% 30.01 in 10.0 mi NW 11.5 mph - N/A   Mostly Cloudy
6:56 AM 3.2 °F -11.3 °F -2.2 °F 78% 30.01 in 10.0 mi NNW 9.2 mph - N/A   Partly Cloudy
7:16 AM 3.2 °F -12.2 °F -4.0 °F 72% 30.01 in 10.0 mi NW 10.4 mph - N/A   Partly Cloudy
7:36 AM 3.2 °F -10.3 °F -4.0 °F 72% 30.01 in 10.0 mi WNW 8.1 mph - N/A   Clear
7:56 AM 1.4 °F -12.5 °F -4.0 °F 78% 30.01 in 10.0 mi West 8.1 mph - N/A   Clear
8:16 AM 1.4 °F -12.5 °F -2.2 °F 85% 30.01 in 10.0 mi WNW 8.1 mph - N/A   Clear
8:36 AM 3.2 °F -7.8 °F -2.2 °F 78% 30.01 in 10.0 mi WNW 5.8 mph - N/A   Clear
8:56 AM 5.0 °F -8.1 °F -2.2 °F 72% 30.01 in 10.0 mi NW 8.1 mph - N/A   Clear
9:16 AM 5.0 °F -6.9 °F -0.4 °F 78% 30.01 in 10.0 mi WNW 6.9 mph - N/A   Clear
9:36 AM 6.8 °F -6.9 °F -0.4 °F 72% 30.01 in 10.0 mi NW 9.2 mph - N/A   Clear
9:56 AM 8.6 °F -6.3 °F 1.4 °F 73% 30.01 in 10.0 mi NW 11.5 mph - N/A   Clear
10:16 AM 8.6 °F -5.5 °F 1.4 °F 73% 30.00 in 10.0 mi NW 10.4 mph - N/A   Clear
10:36 AM 8.6 °F -5.5 °F 1.4 °F 73% 30.01 in 10.0 mi NW 10.4 mph - N/A   Clear
10:56 AM 10.4 °F -2.4 °F 1.4 °F 67% 30.01 in 10.0 mi NW 9.2 mph - N/A   Clear
11:16 AM 10.4 °F -4.1 °F 1.4 °F 67% 30.01 in 10.0 mi NW 11.5 mph - N/A   Clear
11:36 AM 12.2 °F -0.2 °F 1.4 °F 62% 30.01 in 10.0 mi NW 9.2 mph - N/A   Partly Cloudy
11:56 AM 12.2 °F -0.2 °F 1.4 °F 62% 30.01 in 10.0 mi NW 9.2 mph - N/A   Clear
12:16 PM 12.2 °F -1.0 °F 1.4 °F 62% 30.00 in 10.0 mi NNW 10.4 mph - N/A   Clear
12:36 PM 12.2 °F -2.5 °F 1.4 °F 62% 30.01 in 10.0 mi NNW 12.7 mph - N/A   Clear
12:56 PM 12.2 °F -1.0 °F 1.4 °F 62% 30.01 in 10.0 mi NNW 10.4 mph - N/A   Clear
1:16 PM 14.0 °F 1.2 °F 1.4 °F 57% 30.01 in 10.0 mi NNW 10.4 mph - N/A   Clear
1:36 PM 15.8 °F 2.7 °F 1.4 °F 53% 30.00 in 10.0 mi NW 11.5 mph - N/A   Clear
1:56 PM 15.8 °F 1.4 °F 1.4 °F 53% 30.00 in 10.0 mi NW 13.8 mph - N/A   Clear
2:16 PM 15.8 °F 1.4 °F 1.4 °F 53% 30.00 in 10.0 mi NW 13.8 mph - N/A   Partly Cloudy
2:36 PM 15.8 °F 2.1 °F 1.4 °F 53% 30.00 in 10.0 mi NW 12.7 mph - N/A   Partly Cloudy
2:56 PM 15.8 °F 1.4 °F 1.4 °F 53% 29.99 in 10.0 mi WNW 13.8 mph - N/A   Clear
3:16 PM 15.8 °F -0.2 °F 3.2 °F 58% 29.99 in 10.0 mi WNW 17.3 mph - N/A   Clear
3:36 PM 15.8 °F 0.3 °F 3.2 °F 58% 29.99 in 10.0 mi WNW 16.1 mph - N/A   Clear
3:56 PM 15.8 °F -0.6 °F 3.2 °F 58% 29.99 in 10.0 mi WNW 18.4 mph - N/A   Clear
4:16 PM 15.8 °F 0.3 °F 5.0 °F 62% 29.99 in 10.0 mi WNW 16.1 mph - N/A   Clear
4:36 PM 15.8 °F -0.6 °F 3.2 °F 58% 29.99 in 10.0 mi WNW 18.4 mph - N/A   Clear
4:56 PM 15.8 °F -0.6 °F 3.2 °F 58% 29.98 in 10.0 mi WNW 18.4 mph - N/A   Clear
5:16 PM 14.0 °F -1.4 °F 3.2 °F 62% 29.98 in 10.0 mi WNW 15.0 mph - N/A   Clear
5:36 PM 14.0 °F -2.0 °F 3.2 °F 62% 29.98 in 10.0 mi WNW 16.1 mph - N/A   Clear
5:56 PM 14.0 °F -0.8 °F 3.2 °F 62% 29.98 in 10.0 mi WNW 13.8 mph - N/A   Clear
6:16 PM 15.8 °F 1.4 °F 3.2 °F 58% 29.97 in 10.0 mi WNW 13.8 mph - N/A   Clear
6:36 PM 15.8 °F 1.4 °F 5.0 °F 62% 29.97 in 10.0 mi WNW 13.8 mph - N/A   Clear
6:56 PM 15.8 °F 1.4 °F 3.2 °F 58% 29.96 in 10.0 mi WNW 13.8 mph - N/A   Clear
7:16 PM 14.0 °F -1.4 °F 5.0 °F 67% 29.96 in 10.0 mi WNW 15.0 mph - N/A   Clear
7:36 PM 14.0 °F -0.2 °F 5.0 °F 67% 29.96 in 10.0 mi WNW 12.7 mph - N/A   Clear
7:56 PM 14.0 °F 0.5 °F 5.0 °F 67% 29.96 in 10.0 mi WNW 11.5 mph - N/A   Clear
8:16 PM 14.0 °F 1.2 °F 3.2 °F 62% 29.96 in 10.0 mi WNW 10.4 mph - N/A   Clear
8:36 PM 14.0 °F 1.2 °F 5.0 °F 67% 29.95 in 10.0 mi WNW 10.4 mph - N/A   Clear
8:56 PM 12.2 °F -0.2 °F 5.0 °F 73% 29.95 in 10.0 mi West 9.2 mph - N/A   Clear
9:36 PM 12.2 °F -0.2 °F 3.2 °F 67% 29.95 in 10.0 mi WNW 9.2 mph - N/A   Clear
9:56 PM 12.2 °F 0.7 °F 3.2 °F 67% 29.95 in 10.0 mi WNW 8.1 mph - N/A   Clear
10:16 PM 10.4 °F -1.5 °F 3.2 °F 73% 29.95 in 10.0 mi WNW 8.1 mph - N/A   Clear
10:36 PM 10.4 °F -0.4 °F 1.4 °F 67% 29.95 in 10.0 mi WNW 6.9 mph - N/A   Clear
10:56 PM 10.4 °F 0.8 °F 1.4 °F 67% 29.94 in 10.0 mi NW 5.8 mph - N/A   Clear
11:16 PM 10.4 °F 2.2 °F 1.4 °F 67% 29.94 in 10.0 mi NNW 4.6 mph - N/A   Clear
11:36 PM 8.6 °F - -0.4 °F 67% 29.94 in 10.0 mi Calm Calm - N/A   Clear
11:56 PM 6.8 °F -3.5 °F 1.4 °F 79% 29.94 in 10.0 mi NNW 5.8 mph - N/A   Clear